Home   Weather   Inuvik   Past weeks
Flag for Canada

Past Weather in Inuvik, Northwest Territories, Canada — Yesterday and Last 2 Weeks

Now
21 °F

Overcast.


Feels Like: 12 °F
Forecast: 26 / 19 °F
Wind: 8 mph from Southeast

Location: Inuvik

Current Time: Oct 15, 2019 at 6:36:25 pm

Latest Report: Oct 15, 2019 at 6:00 pm


Visibility: 15 mi

Pressure: 29.91 "Hg

Humidity: 86%

Dew Point: 18 °F

Location of InuvikLocation

Past Weather in Inuvik — Graph

°F

Inuvik Temperature Yesterday

Maximum temperature yesterday: 28 °F (at 4:00 pm)
Minimum temperature yesterday: 14 °F (at 7:00 am)
Average temperature yesterday: 21 °F

High & Low Weather Summary for the Past Weeks

 TemperatureHumidityPressure
High54 °F (Sep 30, 5:00 pm)100% (Oct 2, 2:11 am)30.24 "Hg (Oct 2, 2:11 am)
Low14 °F (Oct 14, 7:00 am)42% (Oct 5, 4:00 pm)29.46 "Hg (Oct 5, 6:00 am)
Average32 °F85%29.90 "Hg
* Reported Sep 30 5:00 pm — Oct 15 5:00 pm, Inuvik. Weather by CustomWeather, © 2019

Note: Actual official high and low records may vary slightly from our data, if they occured in-between our weather recording intervals... More about our weather records

Advertising

Inuvik Weather History for the Previous 24 Hours

Scroll right to see more
 ConditionsComfort  
Time TempWeatherWind HumidityBarometerVisibility
5:00 pm
Tue, Oct 15
19 °FOvercast.9 mph86%29.93 "Hg15 mi
4:00 pm19 °FMostly cloudy.12 mph86%29.94 "Hg15 mi
3:00 pm19 °FLow clouds.10 mph86%29.96 "Hg15 mi
2:00 pm19 °FLow clouds.13 mph86%29.97 "Hg15 mi
1:00 pm18 °FMostly cloudy.10 mph86%29.98 "Hg15 mi
12:00 pm18 °FMostly cloudy.9 mph86%29.98 "Hg10 mi
11:27 am18 °FMostly cloudy.10 mph93%29.98 "Hg10 mi
11:00 am18 °FLow clouds.9 mph93%29.99 "Hg10 mi
10:48 am18 °FLow clouds.9 mph93%29.99 "Hg10 mi
10:00 am19 °FPassing clouds.7 mph93%30.00 "Hg10 mi
9:51 am19 °FPassing clouds.8 mph93%30.01 "Hg10 mi
9:00 am21 °FLight snow. Low clouds.9 mph86%30.01 "Hg15 mi
4:00 am23 °FLight snow. Low clouds.7 mph86%30.06 "Hg15 mi
3:53 am23 °FLight snow. Low clouds.12 mph86%30.06 "Hg15 mi
3:00 am23 °FLow clouds.6 mph86%30.08 "Hg15 mi
2:00 am23 °FLow clouds.6 mph86%30.08 "Hg15 mi
1:00 am21 °FLow clouds.8 mph93%30.09 "Hg15 mi
12:36 am19 °FPassing clouds.No wind93%30.09 "Hg15 mi
12:00 am21 °FPassing clouds.9 mph86%30.09 "Hg15 mi
11:00 pm
Mon, Oct 14
21 °FPassing clouds.5 mph93%30.09 "Hg15 mi
10:00 pm21 °FPartly cloudy.5 mph93%30.10 "Hg15 mi
9:00 pm23 °FScattered clouds.5 mph86%30.11 "Hg15 mi
8:00 pm23 °FScattered clouds.8 mph93%30.12 "Hg15 mi
7:00 pm23 °FScattered clouds.3 mph86%30.13 "Hg15 mi
6:00 pm25 °FPassing clouds.12 mph86%30.13 "Hg15 mi
Weather by CustomWeather, © 2019

See weather overview